Location: Krakow
(50.0830°N, 19.9170°E)
Time: 10:51:12
(UTC+01:00)

Transit 2A - Pass Details

Date: 09 February 2023
Orbit: 591 x 964 km, 66.7° (Epoch: 21 March)

Event Time Altitude Azimuth Distance (km) Brightness Sun altitude
Rises 17:23:27 0° 258° (WSW) 3,121 12.0 -6.3°
Reaches altitude 10° 17:26:02 10° 270° (W) 2,266 10.0 -6.7°
Maximum altitude 17:30:28 27° 329° (NNW) 1,489 7.7 -7.4°
Drops below altitude 10° 17:35:19 10° 26° (NNE) 2,491 8.3 -8.1°
Enters shadow 17:37:48 - 37° (NE) 3,316 8.8 -8.5°
Sets 17:38:19 0° 38° (NE) 3,493 - -8.6°
